Hourly Data Report for September 07, 2017

All times are specified in Local Standard Time (LST). Add 1 hour to adjust for Daylight Saving Time where and when it is observed.

SUMMERSIDE
PRINCE EDWARD ISLAND

46°26'28.000" N
63°50'17.000" W
12.20 m
8300596
71702
WSD

Download Data

Hourly Data (September 2017)
Hourly Data Report for September 7, 2017
Temp Definition
°C
Dew Point Temp Definition
°C
Rel Hum Definition
%
Wind Dir Definition
10's deg

Wind Spd Definition
km/h
Visibility Definition
km
Stn Press Definition
kPa
Hmdx Definition


Wind Chill Definition


Weather Definition


TIME
00:00 19.5 18.7 95 17 15   101.46     LegendNANA
01:00 20.5 19.5 94 17 23   101.43 28   LegendNANA
02:00 20.4 19.4 94 17 17   101.36 27   LegendNANA
03:00 20.3 19.3 94 17 23   101.33 27   LegendNANA
04:00 20.4 19.4 94 16 22   101.27 27   LegendNANA
05:00 20.6 19.5 94 16 23   101.22 28   LegendNANA
06:00 20.4 19.4 94 16 25   101.16 27   LegendNANA
07:00 20.7 19.4 92 17 27   101.06 28   LegendNANA
08:00 21.3 20.1 93 17 30   100.93 29   LegendNANA
09:00 21.4 20.4 94 17 29   100.89 29   LegendNANA
10:00 21.5 20.3 93 17 28   100.84 29   LegendNANA
11:00 21.7 20.3 92 17 29   100.78 30   LegendNANA
12:00 21.7 20.6 93 18 28   100.70 30   LegendNANA
13:00 21.3 20.0 92 18 26   100.66 29   LegendNANA
14:00 21.2 20.4 95 20 30   100.56 29   LegendNANA
15:00 21.7 20.1 91 18 29   100.50 29   LegendNANA
16:00 21.8 20.4 92 18 30   100.47 30   LegendNANA
17:00 19.7 18.3 92 21 28   100.52     LegendNANA
18:00 19.5 17.1 86 22 32   100.53     LegendNANA
19:00 19.0 17.2 89 22 28   100.58     LegendNANA
20:00 18.2 16.3 89 22 32   100.65     LegendNANA
21:00 17.3 14.9 86 21 36   100.69     LegendNANA
22:00 16.6 14.5 88 22 33   100.76     LegendNANA
23:00 16.2 14.3 89 22 32   100.75     LegendNANA

Notes on Data Quality.

Legend

  • E = Estimated
  • M = Missing
  • NA = Not Available
  • ‡ = Partner data that is not subject to review by the National Climate Archives
Date modified: